Volkel, Netherlands

1:04 AM CEST on September 28, 2016 (GMT +0200)
Volkel Air Base

Weather History for EHVK - December, 2013

Change the Weather History Date:

Monday, December 16, 2013

  Actual Average Record
Temperature  
Mean Temperature 49 °F -  
Max Temperature 54 °F 40 °F 55 °F (2015)
Min Temperature 44 °F 31 °F 21 °F (1997)
Degree Days  
Heating Degree Days 16    
Moisture  
Dew Point 38 °F    
Average Humidity 66    
Maximum Humidity 82    
Minimum Humidity 43    
Precipitation  
Precipitation 0.00 in - - ()
Sea Level Pressure  
Sea Level Pressure 30.18 in    
Wind  
Wind Speed 13 mph ()    
Max Wind Speed 18 mph    
Max Gust Speed -    
Visibility 6.2 miles    
Events      
Averages and records for this station are not official NWS values.
T = Trace of Precipitation, MM = Missing Value Source: Averaged Metar Reports

Daily Weather History Graph

Daily Weather History Graph

Search for Another Location

Airport or City:

Trip Planner

Search our weather history database for the weather conditions in past years. The results will help you decide how hot, cold, wet, or windy it might be!

Date:

Astronomy

Dec. 16, 2013 Rise Set
Actual Time 8:38 AM CET 4:27 PM CET
Civil Twilight 7:57 AM CET 5:08 PM CET
Nautical Twilight 7:14 AM CET 5:51 PM CET
Astronomical Twilight 6:33 AM CET 6:32 PM CET
Moon 4:12 PM CET (12/16) 7:25 AM CET (12/16)
Length of Visible Light 9h 10m
Length of Day
7h 49m
Waxing Gibbous, 99% of the Moon is Illuminated
Dec 16
Waxing Gibbous
Dec 17
Full
Dec 25
Last Quarter
Jan 1
New
Jan 8
First Quarter

Hourly Weather History & Observations

Time (CET) Temp. Windchill Dew Point Humidity Pressure Visibility Wind Dir Wind Speed Gust Speed Precip Events Conditions
12:01 AM 44.6 °F 37.8 °F 35.6 °F 71% 30.24 in 6.2 mi SSW 15.0 mph - N/A   Scattered Clouds
12:06 AM 44.6 °F 37.8 °F 35.6 °F 71% 30.24 in 6.2 mi SSW 15.0 mph - N/A   Mostly Cloudy
12:25 AM 46.4 °F 40.4 °F 35.6 °F 66% 30.24 in 6.2 mi SSW 13.8 mph - N/A   Overcast
12:32 AM 46.4 °F 40.7 °F 35.6 °F 66% 30.24 in 6.2 mi SSW 12.7 mph - N/A   Overcast
12:55 AM 46.4 °F 40.7 °F 35.6 °F 66% 30.21 in 6.2 mi SSW 12.7 mph - N/A   Overcast
1:25 AM 46.4 °F 40.1 °F 35.6 °F 66% 30.21 in 6.2 mi South 15.0 mph - N/A   Overcast
1:55 AM 46.4 °F 39.8 °F 37.4 °F 71% 30.21 in 6.2 mi South 16.1 mph - N/A   Overcast
2:25 AM 46.4 °F 39.8 °F 37.4 °F 71% 30.21 in 6.2 mi South 16.1 mph - N/A   Overcast
2:55 AM 46.4 °F 40.4 °F 39.2 °F 76% 30.21 in 6.2 mi SSW 13.8 mph - N/A   Overcast
3:25 AM 46.4 °F 39.8 °F 39.2 °F 76% 30.21 in 6.2 mi SSW 16.1 mph - N/A   Overcast
3:55 AM 46.4 °F 40.1 °F 39.2 °F 76% 30.21 in 6.2 mi SSW 15.0 mph - N/A   Overcast
4:25 AM 46.4 °F 40.1 °F 37.4 °F 71% 30.18 in 6.2 mi South 15.0 mph - N/A   Overcast
4:55 AM 46.4 °F 39.5 °F 39.2 °F 76% 30.18 in 6.2 mi SSW 17.3 mph - N/A   Overcast
5:25 AM 46.4 °F 40.1 °F 39.2 °F 76% 30.18 in 6.2 mi SSW 15.0 mph - N/A   Overcast
5:55 AM 46.4 °F 39.8 °F 41.0 °F 81% 30.18 in 6.2 mi SSW 16.1 mph - N/A   Overcast
6:25 AM 46.4 °F 40.1 °F 41.0 °F 81% 30.18 in 6.2 mi South 15.0 mph - N/A   Overcast
6:55 AM 46.4 °F 39.8 °F 41.0 °F 81% 30.18 in 6.2 mi SSW 16.1 mph - N/A   Overcast
7:25 AM 46.4 °F 40.4 °F 41.0 °F 81% 30.18 in 6.2 mi SSW 13.8 mph - N/A   Overcast
7:55 AM 48.2 °F - 42.8 °F 82% 30.18 in 6.2 mi SSW 15.0 mph - N/A   Overcast
8:25 AM 48.2 °F - 42.8 °F 82% 30.18 in 6.2 mi SSW 16.1 mph - N/A   Overcast
8:55 AM 50.0 °F - 42.8 °F 76% 30.18 in 6.2 mi SSW 18.4 mph - N/A   Overcast
9:09 AM 50.0 °F - 41.0 °F 71% 30.18 in 6.2 mi SSW 18.4 mph - N/A   Overcast
9:13 AM 50.0 °F - 41.0 °F 71% 30.18 in 6.2 mi SSW 18.4 mph - N/A   Overcast
9:25 AM 50.0 °F - 41.0 °F 71% 30.18 in 6.2 mi SSW 16.1 mph - N/A   Overcast
9:29 AM 50.0 °F - 41.0 °F 71% 30.18 in 6.2 mi SSW 16.1 mph - N/A   Overcast
9:55 AM 50.0 °F - 41.0 °F 71% 30.18 in 6.2 mi SSW 17.3 mph - N/A   Overcast
10:25 AM 48.2 °F - 41.0 °F 76% 30.18 in 6.2 mi SSW 15.0 mph - N/A   Unknown
10:29 AM 48.2 °F - 41.0 °F 76% 30.18 in 6.2 mi SSW 13.8 mph - N/A   Unknown
10:55 AM 48.2 °F - 41.0 °F 76% 30.18 in 6.2 mi SSW 12.7 mph - N/A   Unknown
11:25 AM 50.0 °F - 41.0 °F 71% 30.18 in 6.2 mi South 11.5 mph - N/A   Partly Cloudy
11:55 AM 51.8 °F - 41.0 °F 67% 30.18 in 6.2 mi SSW 13.8 mph - N/A   Scattered Clouds
12:05 PM 51.8 °F - 41.0 °F 67% 30.18 in 6.2 mi SSW 13.8 mph - N/A   Unknown
12:25 PM 51.8 °F - 41.0 °F 67% 30.18 in 6.2 mi SSW 13.8 mph - N/A   Unknown
12:55 PM 53.6 °F - 42.8 °F 67% 30.18 in 6.2 mi SSW 11.5 mph - N/A   Unknown
1:25 PM 53.6 °F - 41.0 °F 62% 30.18 in 6.2 mi SSW 13.8 mph - N/A   Unknown
1:55 PM 53.6 °F - 41.0 °F 62% 30.15 in 6.2 mi SSW 16.1 mph - N/A   Unknown
2:25 PM 53.6 °F - 39.2 °F 58% 30.15 in 6.2 mi SSW 12.7 mph - N/A   Scattered Clouds
2:55 PM 53.6 °F - 39.2 °F 58% 30.15 in 6.2 mi SSW 12.7 mph - N/A   Unknown
3:20 PM 51.8 °F - 39.2 °F 62% 30.15 in 6.2 mi SSW 10.4 mph - N/A   Unknown
3:25 PM 51.8 °F - 39.2 °F 62% 30.15 in 6.2 mi SSW 11.5 mph - N/A   Unknown
3:55 PM 51.8 °F - 37.4 °F 58% 30.12 in 6.2 mi South 11.5 mph - N/A   Unknown
4:25 PM 50.0 °F - 37.4 °F 62% 30.15 in 6.2 mi South 8.1 mph - N/A   Unknown
4:55 PM 50.0 °F - 35.6 °F 58% 30.15 in 6.2 mi South 10.4 mph - N/A   Unknown
5:00 PM 50 °F - 35 °F 43% 30.16 in 28 mi South 11.2 mph - -  
5:25 PM 48.2 °F - 33.8 °F 58% 30.15 in 6.2 mi South 9.2 mph - N/A   Unknown
5:55 PM 48.2 °F - 33.8 °F 58% 30.15 in 6.2 mi South 10.4 mph - N/A   Unknown
6:00 PM 49 °F - 34 °F 43% 30.17 in 28 mi South 11.2 mph - -  
6:25 PM 48.2 °F - 33.8 °F 58% 30.15 in 6.2 mi SSW 12.7 mph - N/A   Unknown
6:55 PM 50.0 °F - 35.6 °F 58% 30.18 in 6.2 mi SSW 12.7 mph - N/A   Overcast
7:00 PM 50 °F - 35 °F 44% 30.20 in 28 mi SSW 11.2 mph - -   Partly Cloudy
7:04 PM 50.0 °F - 35.6 °F 58% 30.18 in 6.2 mi SSW 11.5 mph - N/A   Overcast
7:05 PM 50.0 °F - 35.6 °F 58% 30.18 in 6.2 mi SSW 11.5 mph - N/A   Overcast
7:25 PM 50.0 °F - 35.6 °F 58% 30.18 in 6.2 mi SSW 11.5 mph - N/A   Overcast
7:29 PM 50.0 °F - 35.6 °F 58% 30.18 in 6.2 mi SSW 11.5 mph - N/A   Overcast
7:48 PM 50.0 °F - 35.6 °F 58% 30.18 in 6.2 mi SSW 10.4 mph - N/A   Mostly Cloudy
7:55 PM 48.2 °F - 35.6 °F 62% 30.18 in 6.2 mi SSW 10.4 mph - N/A   Mostly Cloudy
8:00 PM 49 °F - 36 °F 51% 30.21 in 28 mi SSW 11.2 mph - -   Mostly Cloudy
8:25 PM 50.0 °F - 37.4 °F 62% 30.18 in 6.2 mi SSW 11.5 mph - N/A   Overcast
8:46 PM 50.0 °F - 37.4 °F 62% 30.18 in 6.2 mi SSW 11.5 mph - N/A   Overcast
8:47 PM 50.0 °F - 37.4 °F 62% 30.18 in 6.2 mi SSW 11.5 mph - N/A   Overcast
8:55 PM 50.0 °F - 37.4 °F 62% 30.18 in 6.2 mi South 12.7 mph - N/A   Overcast
9:00 PM 50 °F - 38 °F 52% 30.20 in 25 mi South 11.2 mph - -   Overcast
9:01 PM 50.0 °F - 37.4 °F 62% 30.18 in 6.2 mi South 12.7 mph - N/A   Overcast
9:05 PM 50.0 °F - 37.4 °F 62% 30.18 in 6.2 mi SSW 11.5 mph - N/A   Overcast
9:25 PM 50.0 °F - 37.4 °F 62% 30.18 in 6.2 mi SSW 11.5 mph - N/A   Overcast
9:55 PM 50.0 °F - 39.2 °F 66% 30.18 in 6.2 mi SSW 11.5 mph - N/A   Overcast
10:00 PM 50 °F - 39 °F 55% 30.19 in 28 mi South 11.2 mph - -   Overcast
10:25 PM 50.0 °F - 39.2 °F 66% 30.18 in 6.2 mi SSW 12.7 mph - N/A   Overcast
10:41 PM 50.0 °F - 39.2 °F 66% 30.18 in 6.2 mi SSW 12.7 mph - N/A   Overcast
10:55 PM 50.0 °F - 39.2 °F 66% 30.18 in 6.2 mi SSW 12.7 mph - N/A   Overcast
11:00 PM 50 °F - 39 °F 57% 30.20 in 28 mi SSW 13.4 mph - -   Overcast
11:25 PM 50.0 °F - 39.2 °F 66% 30.18 in 6.2 mi SSW 11.5 mph - N/A   Overcast
11:29 PM 50.0 °F - 39.2 °F 66% 30.18 in 6.2 mi SSW 11.5 mph - N/A   Overcast
11:33 PM 50.0 °F - 39.2 °F 66% 30.18 in 6.2 mi SSW 11.5 mph - N/A   Overcast
11:41 PM 50.0 °F - 41.0 °F 71% 30.18 in 6.2 mi SSW 11.5 mph - N/A   Overcast
11:45 PM 50.0 °F - 41.0 °F 71% 30.18 in 6.2 mi SSW 11.5 mph - N/A   Overcast
11:55 PM 50.0 °F - 39.2 °F 66% 30.18 in 6.2 mi SSW 12.7 mph - N/A   Overcast